Tracking 19795 objects as of 19-Jul-2019
HD Live streaming from Space Station
objects crossing your sky now

COSMOS 1633

Track COSMOS 1633 now!
10-day predictions
COSMOS 1633 is classified as:


NORAD ID: 15592
Int'l Code: 1985-020A
Perigee: 472.9 km
Apogee: 490.7 km
Inclination: 82.5 °
Period: 94.1 minutes
Semi major axis: 6852 km
RCS: 7.2924 m2 (large)
Launch date: March 5, 1985
Source: Commonwealth of Independent States (former USSR) (CIS)
Launch site: PLESETSK MISSILE AND SPACE COMPLEX (PKMTR)
aabbcc
Your satellite tracking list
Your tracking list is empty




NASA's NSSDC Master Catalog

Two Line Element Set (TLE):
1 15592U 85020A   19199.75307549 +.00000630 +00000-0 +20137-4 0  9992
2 15592 082.5382 275.0390 0013031 007.2785 352.8642 15.30391402880425
Source of the keplerian elements: AFSPC